Location: Waldport
(44.4270°N, 124.0680°W)
Time: 17:21:30
(UTC-08:00)

Meteor 1-26 Rocket - Visible Passes

Search period start: 27 January 2015 00:00
Search period end: 06 February 2015 00:00
Orbit: 822 x 913 km, 81.3° (Epoch: 27 January)

Date Brightness Start Highest point End Pass type
(mag) Time Alt. Az. Time Alt. Az. Time Alt. Az.
27 Jan 4.3 18:06:50 10° N 18:12:14 52° ENE 18:17:43 10° SSE visible
27 Jan 6.6 19:50:59 10° NW 19:55:13 22° W 19:59:18 10° SW visible
28 Jan 4.3 18:00:00 10° N 18:05:24 53° ENE 18:10:54 10° SSE visible
28 Jan 6.6 19:44:11 10° NW 19:48:22 22° W 19:52:25 10° SW visible
29 Jan 4.3 17:53:08 10° N 17:58:34 54° ENE 18:04:05 10° SSE visible
29 Jan 6.7 19:37:22 10° NW 19:41:31 21° W 19:45:32 10° SW visible
30 Jan 4.8 07:06:54 10° S 07:12:21 64° E 07:17:47 10° NNE visible
30 Jan 4.3 17:46:16 10° N 17:51:43 55° ENE 17:57:17 10° SSE visible
30 Jan 6.8 19:30:32 10° NW 19:34:40 21° W 19:38:40 10° SW visible
31 Jan 4.7 07:00:03 10° S 07:05:30 65° E 07:10:57 10° NNE visible
31 Jan 6.8 19:23:43 10° NW 19:27:49 21° W 19:31:47 10° SW visible
01 Feb 4.7 06:53:12 10° S 06:58:39 66° E 07:04:06 10° NNE visible
01 Feb 6.9 19:16:55 10° NW 19:20:58 20° W 19:24:54 10° SW visible
02 Feb 4.6 06:46:21 10° S 06:51:48 67° E 06:57:16 10° NNE visible
02 Feb 7.0 19:10:05 10° NW 19:14:07 20° W 19:18:01 10° SW visible
03 Feb 4.6 06:39:30 10° S 06:44:57 68° E 06:50:25 10° NNE visible
03 Feb 7.0 19:03:16 10° NW 19:07:16 20° W 19:11:07 10° SW visible
04 Feb 4.6 06:32:40 10° S 06:38:07 70° E 06:43:35 10° NNE visible
04 Feb 7.1 18:56:27 10° NW 19:00:25 19° W 19:04:14 10° SW visible
05 Feb 4.5 06:25:49 10° S 06:31:15 71° E 06:36:44 10° NNE visible
05 Feb 7.1 18:49:39 10° NW 18:53:35 19° W 18:57:21 10° SW visible
